www.pogodaiklimat.ru

Погода и климат >> Архив погоды >> Украина >> Черкассы


АРХИВ ПОГОДЫ в Черкассах

Время (UTC), дата Ветер
(напр.,м/с)
 
Видим.   Явления Облачность Т
(С)
Тd
(С)
f
(%)
Тe
(С)
Тes
(С)
Комфортность P
(гПа)
Po
(гПа)
Тmin
(С)
Tmax
(С)
R
(мм)
R24
(мм)
S
(см)
15 16.09 З 7 10 км 8/4 1500 м
[Sc diur, vesp Ac und]
+23.8 +5.5 31 +24 +24 комфорт 1009.2 996.9
18 16.09 З 6 10 км 9/3 1000 м
[Sc Ac und]
+21.8 +6.5 37 +23 +23 комфорт 1009.5 997.1 +27.0
21 16.09 З 2 10 км 8/0
[Ac und Ci]
+17.7 +6.4 47 +18 +18 тепло 1009.7 997.1
00 17.09 З 3 10 км в посл. час ливневой дождь 9/6 870 м
[Cb calv Ac und]
+16.4 +7.4 55 +16 +16 тепло 1009.7 997.1
03 17.09 З 2 4000 м слаб. ливневой дождь 10/10 800 м
[Cb calv]
+13.3 +10.2 81 +13 +13 тепло 1009.8 997.0
06 17.09 З 4 10 км {ливн. осадки} 10/3 600 м
[Cb cap Ac und]
+13.5 +10.8 84 +12 +12 по сезону 1010.1 997.3 +12.6 0.8
09 17.09 СЗ 4 10 км 9/3 600 м
[Cu hum Ac lent Cs]
+17.0 +8.7 58 +17 +19 тепло 1009.6 997.0
12 17.09 СЗ 6 10 км 5/3 1500 м
[Sc diur, vesp Ci fib]
+19.8 +2.7 32 +20 +22 тепло 1008.3 995.8
15 17.09 З 4 10 км 3/1 1500 м
[Sc diur, vesp Ci sp]
+19.5 +2.2 32 +20 +20 тепло 1007.5 995.0
18 17.09 ЮЗ 1 10 км ясно +9.0 +3.5 68 +9 +9 прохладно 1008.2 995.2 +20.6
21 17.09 ЮЗ 1 10 км 6/0
[Ac und]
+8.5 +1.7 62 +8 +8 прохладно 1007.5 994.5
00 18.09 ЮЗ 3 10 км 8/0
[Ac und]
+10.0 +6.8 80 +8 +8 по сезону 1006.1 993.2
03 18.09 Ю 3 10 км в посл. час ливневой дождь 10/3 600 м
[Cb cap Ac und]
+11.5 +8.5 82 +10 +10 по сезону 1004.5 991.7
06 18.09 З 8 10 км в посл. час ливневой дождь 10/3 600 м
[Cb cap Ac und]
+12.7 +8.1 74 +10 +10 по сезону 1004.6 991.9 +8.3 0.3
09 18.09 З 10 20 км 6/3 1000 м
[Sc Ac trans]
+13.4 -0.3 39 +11 +11 прохладно 1006.9 994.1
12 18.09 СЗ 8
{19}
20 км 4/4 1000 м
[Cu hum]
+13.8 -1.1 36 +12 +12 холодно 1007.9 995.1
15 18.09 З 9 10 км слаб. ливневой дождь 8/4 600 м
[Cb cap Ac trans]
+12.9 +1.5 46 +10 +10 холодно 1009.7 996.9
18 18.09 З 5 10 км {ливн. осадки} 5/0
[Ac trans]
+9.7 +5.5 75 +7 +7 холодно 1012.5 999.5 +16.5 0.8
21 18.09 З 4 10 км 3/0
[Ac trans]
+9.8 +5.4 74 +7 +7 прохладно 1014.2 1001.2
00 19.09 З 2 10 км ясно +8.1 +5.2 82 +6 +6 прохладно 1016.2 1003.1
03 19.09 З 3 10 км ясно +6.8 +4.5 85 +4 +4 холодно 1017.2 1004.0
06 19.09 З 5 10 км ясно +10.1 +4.8 70 +7 +9 прохладно 1018.1 1005.1 +4.8
09 19.09 З 6 10 км 8/8 1080 м
[Sc]
+14.5 +4.3 50 +13 +14 по сезону 1018.6 1005.8
12 19.09 З 6 10 км {ливн. осадки} 8/6 1000 м
[Cb cap Ac trans]
+14.6 +0.8 39 +13 +14 холодно 1018.3 1005.5
15 19.09 З 3 10 км 4/3 600 м
[Sc Ac cast]
+14.1 +3.2 48 +13 +14 прохладно 1018.3 1005.4
18 19.09 штиль 0 10 км ясно +5.6 +1.3 74 +5 +5 очень
холодно
1019.5 1006.2 +16.3 0.1
21 19.09 ЮЗ 1 10 км ясно +4.6 +2.1 84 +3 +3 очень
холодно
1019.7 1006.4
00 20.09 штиль 0 10 км ясно +1.6 -0.0 89 0 0 очень
холодно
1019.9 1006.4
03 20.09 штиль 0 10 км 9/9 1500 м
[Sc]
+2.4 +0.8 89 +1 +1 очень
холодно
1019.2 1005.8
06 20.09 З 2 20 км 3/0
[Ci fib]
+8.8 +4.5 74 +7 +9 прохладно 1018.9 1005.8 +0.2
09 20.09 СЗ 4 20 км 6/6 1080 м
[Cu hum]
+14.7 +2.6 44 +14 +16 по сезону 1017.8 1005.0
12 20.09 С 6 10 км в посл. час ливневой дождь 9/8 870 м
[Cb calv Ac und]
+13.0 +3.7 53 +11 +11 холодно 1017.0 1004.1
15 20.09 СЗ 1 10 км {гроза, ливн. осадки} 6/4 1000 м
[Cb calv Ac cuf Cc]
+11.4 +5.8 68 +11 +12 прохладно 1017.3 1004.3
18 20.09 СЗ 3 10 км {гроза, ливн. осадки} 4/1 1000 м
[Sc Ac und]
+8.1 +3.9 75 +6 +6 холодно 1018.9 1005.8 +15.7 0.8
21 20.09 З 2 10 км 3/0
[Ac und Ci sp]
+4.7 +1.9 82 +2 +2 очень
холодно
1019.5 1006.2
00 21.09 СЗ 4 10 км 3/0
[Ac und]
+3.8 +1.8 87 -1 -1 очень
холодно
1020.0 1006.6
03 21.09 СЗ 3 4000 м слаб. ливневой дождь 9/9 900 м
[Cb calv]
+5.0 +3.6 91 +1 +1 очень
холодно
1020.6 1007.3
06 21.09 З 4 10 км в посл. час ливневой дождь 10/10 800 м
[Cb cap]
+6.1 +4.5 89 +2 +2 очень
холодно
1021.9 1008.6 +2.6 0.5
09 21.09 СЗ 5 10 км 8/8 700 м
[Sc]
+10.0 +3.8 65 +7 +8 очень
холодно
1022.4 1009.3
12 21.09 З 5 20 км 8/5 600 м
[Sc Ci]
+13.3 -0.6 38 +12 +13 холодно 1021.5 1008.6
15 21.09 З 3 10 км 8/0
[Cc]
+12.6 -2.6 35 +12 +12 прохладно 1020.4 1007.4
18 21.09 ЮЗ 2 10 км 10/10 800 м
[Sc]
+10.3 -2.3 41 +9 +9 прохладно 1019.6 1006.5 +14.1
21 21.09 З 7 10 км 10/10 750 м
[Sc]
+12.1 +4.4 59 +9 +9 по сезону 1018.0 1005.1
00 22.09 З 5 10 км 10/10 700 м
[Sc]
+11.4 +9.0 85 +9 +9 по сезону 1016.2 1003.3
03 22.09 З 4 10 км 10/10 700 м
[Sc]
+12.7 +8.9 78 +11 +11 по сезону 1015.1 1002.2
06 22.09 З 7 20 км 9/8 840 м
[Sc Ac und]
+14.5 +8.3 66 +13 +13 тепло 1015.3 1002.5 +10.0
09 22.09 З 7 20 км 9/9 800 м
[Cb calv]
+15.2 +7.8 61 +13 +14 по сезону 1015.9 1003.1
12 22.09 З 7 20 км 9/9 1080 м
[Sc]
+16.7 +7.3 54 +16 +16 по сезону 1015.2 1002.5
15 22.09 З 3 20 км 3/3 1000 м
[Sc]
+16.7 +7.1 53 +17 +17 тепло 1014.2 1001.5
18 22.09 С 3 10 км 4/0
[Ac und Ci fib]
+13.5 +7.4 67 +12 +12 по сезону 1013.8 1001.0 +17.2
21 22.09 ЮЗ 3 10 км ясно +11.3 +7.4 77 +10 +10 по сезону 1013.8 1000.9
00 23.09 СЗ 2 10 км 9/9 840 м
[Sc]
+8.5 +6.8 89 +7 +7 прохладно 1014.7 1001.6
03 23.09 СВ 3 10 км 10/10 870 м
[Sc]
+9.7 +6.0 78 +8 +8 по сезону 1016.4 1003.4
06 23.09 СВ 4 10 км 10/10 600 м
[Sc]
+9.2 +4.2 71 +6 +6 прохладно 1018.8 1005.7 +8.3
09 23.09 В 3 10 км 9/9 1110 м
[Sc]
+11.4 +3.2 57 +10 +11 прохладно 1019.9 1006.9
12 23.09 С 2 20 км 8/4 1000 м
[Sc Ac und]
+13.0 -0.8 39 +13 +15 холодно 1019.2 1006.3

 

Местоположение метеостанции Черкассы (Черкасская область, Украина): широта 49.42 долгота 32.05 высота над уровнем моря 107 м.

В архиве по умолчанию представлена погода в Черкассах за последнюю неделю. Архивные данные за месяц целиком и за предыдущие месяцы, начиная с января 2011 года, Вы можете получить, выбрав интересующий диапазон дат из раскрывающегося списка и нажав кнопку "Ввод!".


*Определитесь, кто Вы:
робот инопланетянин человек

Внимание! Время в таблицах - всемирное. Для получения местного времени необходимо прибавить поправку, которая равна 2 ч.

Смотрите также архив погоды в соседних городах и на ближайших метеорологических станциях:

Погода в Золотоноше (Черкасская область, Украина) (29 км)
Погода в Ротмистровке (Черкасская область, Украина) (41 км)
Погода в Каневе (Черкасская область, Украина) (51 км)
Погода в Чигирине (Черкасская область, Украина) (59 км)
Погода в Новомиргороде (Кировоградская область, Украина) (77 км)
Погода в Мироновке (Киевская область, Украина) (81 км)
Погода в Знаменке (Кировоградская область, Украина) (90 км)
Погода в Яготине (Киевская область, Украина) (91 км)
Погода в Веселом Подоле (Полтавская область, Украина) (91 км)
Погода в Звенигородке (Черкасская область, Украина) (92 км)

Пояснения к столбцам:

Ветер - указаны скорость ветра в м/с - средняя за 10 мин, порывы в срок и между сроками (в фигурных скобках) и направление, откуда дует ветер: С - северный, СВ - северо-восточный, В - восточный, ЮВ - юго-восточный, Ю - южный, ЮЗ - юго-западный, З - западный, СЗ - северо-западный.
Видимость - горизонтальная дальность видимости в метрах или километрах. При видимости от 1 до 10 км при отсутствии осадков обычно наблюдается дымка, при ухудшении видимости до 1 км и менее - туман. В сухую погоду видимость может ухудшаться дымом, пылью или мглою.
Явления - указаны атмосферные явления, наблюдавшиеся в срок или в последний час перед сроком; фигурными скобками обозначены явления, наблюдавшиеся между сроками (за 1-3 часа до срока); квадратными скобками обозначены град или гололедные отложения с указанием их диаметра в мм.
Облачность - указаны через наклонную черту общая и нижняя облачность в баллах и высота нижней границы облаков в метрах; квадратными скобками обозначены формы облаков: Ci - перистые, Cs - перисто-слоистые, Cc - перисто-кучевые, Ac - высококучевые, As - высокослоистые, Sc - слоисто-кучевые, Ns - слоисто-дождевые, Cu - кучевые, Cb - кучево-дождевые. Подробнее классификацию облаков см. в Атласе облаков (PDF).
T - Температура воздуха - температура, измеренная на высоте 2 м над землей.
Td - Температура точки росы - температура, при понижении до которой содержащийся в воздухе водяной пар достигнет насыщения.
f - Относительная влажность воздуха - влажноcть воздуха, измеренная на высоте 2 м над землей.
Te - Эффективная температура - температура, которую ощущает одетый по сезону человек в тени. Характеристика душности погоды. При расчете учитывается влияние влажности воздуха и скорости ветра на теплоощущения человека.
Tes - Эффективная температура на солнце - температура, которую ощущает человек, с поправкой на солнечный нагрев. Характеристика знойности погоды. Зависит от высоты солнца над горизонтом, облачности и скорости ветра. Ночью, в пасмурную погоду, а также при ветре 12 м/с и более поправка равна нулю.
P - Атмосферное давление - приведенное к уровню моря атмосферное давление.
Po - Атмосферное давление - измеренное на уровне метеостанции атмосферное давление.
Tmin - Минимальная температура - минимум температуры воздуха на высоте 2 м над землей.
Tmax - Максимальная температура - максимум температуры воздуха на высоте 2 м над землей.
R - Количество осадков - Количество выпавших осадков за период времени, мм. При наведении курсора мыши на число - период времени, за который выпало указанное количество осадков.
R24 - Количество осадков - Количество выпавших осадков за 24 часа, мм.
S - Снежный покров - Высота снежного покрова, см. При наведении курсора мыши на число - состояние снежного покрова и степень покрытия местности в баллах.